Radiation Dose at Monitoring Post of Fukushima Daini Nuclear Power Station
Date,Time,MP-1(microSv/h),MP-2(microSv/h),MP-3(microSv/h),MP-4(microSv/h),MP-5(microSv/h),MP-6(microSv/h),MP-7(microSv/h),Wind Direction,Wind Velocity(m/s),Rain
2020/10/25,00:00,0.171,0.152,0.246,0.234,0.240,0.133,0.082,west-northwest,10.1,No
2020/10/25,00:10,0.172,0.152,0.247,0.233,0.239,0.132,0.081,west-northwest,7.0,No
2020/10/25,00:20,0.172,0.154,0.246,0.235,0.240,0.132,0.081,west-northwest,6.0,No
2020/10/25,00:30,0.171,0.152,0.247,0.235,0.240,0.132,0.080,west-northwest,4.3,No
2020/10/25,00:40,0.171,0.152,0.247,0.233,0.239,0.132,0.080,west-northwest,5.8,No
2020/10/25,00:50,0.171,0.153,0.246,0.235,0.239,0.133,0.081,west,2.6,No
2020/10/25,01:00,0.171,0.151,0.247,0.235,0.238,0.133,0.080,west-southwest,1.9,No
2020/10/25,01:10,0.172,0.153,0.248,0.234,0.239,0.133,0.081,west,2.7,No
2020/10/25,01:20,0.172,0.153,0.246,0.234,0.240,0.133,0.081,west,2.4,No
2020/10/25,01:30,0.171,0.152,0.248,0.236,0.238,0.132,0.081,west-northwest,4.8,No
2020/10/25,01:40,0.172,0.152,0.247,0.234,0.240,0.132,0.081,west,3.5,No
2020/10/25,01:50,0.171,0.152,0.247,0.234,0.239,0.132,0.081,west-northwest,2.8,No
2020/10/25,02:00,0.171,0.153,0.247,0.235,0.239,0.133,0.080,west-northwest,5.7,No
2020/10/25,02:10,0.171,0.151,0.246,0.234,0.239,0.133,0.081,west,6.3,No
2020/10/25,02:20,0.172,0.152,0.248,0.234,0.239,0.132,0.081,west-northwest,3.1,No
2020/10/25,02:30,0.170,0.153,0.246,0.236,0.239,0.132,0.081,west,1.5,No
2020/10/25,02:40,0.171,0.152,0.247,0.234,0.240,0.133,0.081,west-northwest,3.3,No
2020/10/25,02:50,0.171,0.152,0.246,0.235,0.239,0.132,0.081,west-northwest,6.2,No
2020/10/25,03:00,0.172,0.153,0.248,0.236,0.239,0.133,0.081,west-northwest,4.4,No
2020/10/25,03:10,0.172,0.152,0.247,0.234,0.240,0.133,0.081,west-northwest,4.4,No
2020/10/25,03:20,0.172,0.152,0.247,0.234,0.238,0.134,0.081,west,3.6,No
2020/10/25,03:30,0.171,0.152,0.247,0.235,0.239,0.132,0.081,west-northwest,5.5,No
2020/10/25,03:40,0.172,0.153,0.246,0.235,0.239,0.133,0.081,west-northwest,4.9,No
2020/10/25,03:50,0.172,0.153,0.248,0.234,0.239,0.132,0.081,west,6.9,No
2020/10/25,04:00,0.172,0.154,0.246,0.235,0.240,0.133,0.081,west,5.6,No
2020/10/25,04:10,0.172,0.152,0.247,0.235,0.240,0.133,0.081,west-northwest,3.3,No
2020/10/25,04:20,0.170,0.151,0.246,0.235,0.239,0.133,0.081,west-southwest,2.5,No
2020/10/25,04:30,0.172,0.153,0.247,0.234,0.240,0.134,0.081,west,4.0,No
2020/10/25,04:40,0.173,0.153,0.246,0.235,0.239,0.133,0.081,west,6.4,No
2020/10/25,04:50,0.171,0.153,0.246,0.234,0.238,0.133,0.081,west,6.1,No
2020/10/25,05:00,0.172,0.152,0.247,0.234,0.239,0.133,0.080,west-northwest,3.4,No
2020/10/25,05:10,0.172,0.153,0.247,0.235,0.239,0.133,0.081,west,3.1,No
2020/10/25,05:20,0.171,0.152,0.247,0.234,0.240,0.134,0.081,west-northwest,4.0,No
2020/10/25,05:30,0.171,0.153,0.246,0.236,0.239,0.133,0.080,west-northwest,4.3,No
2020/10/25,05:40,0.171,0.152,0.249,0.236,0.239,0.133,0.081,west-northwest,3.2,No
2020/10/25,05:50,0.172,0.151,0.247,0.234,0.241,0.134,0.081,west,1.1,No
2020/10/25,06:00,0.172,0.152,0.247,0.235,0.240,0.133,0.081,west-southwest,1.0,No
2020/10/25,06:10,0.172,0.153,0.247,0.234,0.240,0.134,0.081,south-southeast,0.9,No
2020/10/25,06:20,0.172,0.152,0.247,0.235,0.240,0.133,0.081,west,2.0,No
2020/10/25,06:30,0.172,0.153,0.247,0.235,0.241,0.133,0.081,west-southwest,0.6,No
2020/10/25,06:40,0.171,0.153,0.247,0.235,0.239,0.134,0.081,northwest,3.2,No
2020/10/25,06:50,0.171,0.153,0.248,0.235,0.240,0.134,0.081,west,3.0,No
2020/10/25,07:00,0.171,0.152,0.246,0.233,0.239,0.133,0.080,west-northwest,5.1,No
2020/10/25,07:10,0.173,0.153,0.247,0.235,0.240,0.133,0.081,west,5.4,No
2020/10/25,07:20,0.172,0.152,0.247,0.236,0.241,0.133,0.082,west,5.9,No
2020/10/25,07:30,0.172,0.154,0.247,0.234,0.240,0.132,0.081,west-northwest,4.3,No
2020/10/25,07:40,0.171,0.152,0.248,0.235,0.241,0.133,0.080,west-southwest,1.3,No
2020/10/25,07:50,0.171,0.153,0.248,0.235,0.239,0.133,0.081,west,2.5,No
2020/10/25,08:00,0.172,0.153,0.246,0.234,0.240,0.134,0.081,west-southwest,5.8,No
2020/10/25,08:10,0.170,0.153,0.248,0.235,0.240,0.134,0.082,west-northwest,5.2,No
2020/10/25,08:20,0.172,0.152,0.248,0.235,0.239,0.134,0.081,west,5.2,No
2020/10/25,08:30,0.171,0.153,0.246,0.235,0.241,0.133,0.081,west,8.7,No
2020/10/25,08:40,0.172,0.151,0.249,0.234,0.239,0.133,0.081,west,8.4,No
2020/10/25,08:50,0.172,0.152,0.247,0.234,0.241,0.132,0.081,west-northwest,7.1,No
2020/10/25,09:00,0.171,0.152,0.247,0.235,0.238,0.134,0.081,west-northwest,8.3,No
2020/10/25,09:10,0.171,0.152,0.246,0.234,0.241,0.132,0.081,west-northwest,9.5,No
2020/10/25,09:20,0.171,0.153,0.247,0.234,0.237,0.133,0.080,west-northwest,7.6,No
2020/10/25,09:30,0.172,0.153,0.247,0.234,0.241,0.133,0.081,west-southwest,4.9,No
2020/10/25,09:40,0.173,0.152,0.247,0.236,0.239,0.132,0.082,west-northwest,7.3,No
2020/10/25,09:50,0.171,0.153,0.249,0.234,0.239,0.133,0.080,west-northwest,8.5,No
2020/10/25,10:00,0.172,0.153,0.246,0.235,0.239,0.133,0.081,west,9.0,No
2020/10/25,10:10,0.171,0.152,0.248,0.234,0.238,0.134,0.081,west,10.9,No
2020/10/25,10:20,0.169,0.153,0.247,0.234,0.241,0.133,0.081,west,10.7,No
2020/10/25,10:30,0.172,0.153,0.245,0.235,0.240,0.133,0.081,west,8.1,No
2020/10/25,10:40,0.171,0.154,0.247,0.234,0.238,0.134,0.081,west,9.2,No
2020/10/25,10:50,0.171,0.153,0.245,0.236,0.241,0.133,0.081,west-southwest,7.3,No
2020/10/25,11:00,0.174,0.152,0.247,0.235,0.240,0.134,0.082,west,9.2,No
2020/10/25,11:10,0.172,0.154,0.248,0.233,0.238,0.133,0.081,west,9.0,No
2020/10/25,11:20,0.170,0.152,0.246,0.236,0.240,0.134,0.082,west-southwest,3.7,No
2020/10/25,11:30,0.172,0.153,0.248,0.236,0.240,0.135,0.081,west,4.9,No
2020/10/25,11:40,0.173,0.154,0.247,0.234,0.237,0.134,0.081,west-southwest,7.5,No
2020/10/25,11:50,0.170,0.152,0.247,0.236,0.239,0.133,0.081,west,7.8,No
2020/10/25,12:00,0.173,0.153,0.248,0.236,0.241,0.134,0.082,west,6.1,No
2020/10/25,12:10,0.173,0.153,0.248,0.234,0.239,0.135,0.081,west,5.7,No
2020/10/25,12:20,0.171,0.152,0.248,0.236,0.238,0.133,0.081,west,9.0,No
2020/10/25,12:30,0.172,0.153,0.250,0.235,0.241,0.134,0.082,west,6.1,No
2020/10/25,12:40,0.173,0.153,0.248,0.234,0.240,0.135,0.081,west,8.5,No
2020/10/25,12:50,0.172,0.152,0.247,0.236,0.239,0.133,0.080,west,5.0,No
2020/10/25,13:00,0.170,0.152,0.248,0.236,0.241,0.135,0.081,west-southwest,2.9,No
2020/10/25,13:10,0.172,0.153,0.248,0.235,0.242,0.134,0.082,west,4.5,No
2020/10/25,13:20,0.172,0.154,0.250,0.237,0.239,0.135,0.081,west,4.5,No
2020/10/25,13:30,0.173,0.153,0.247,0.236,0.243,0.135,0.081,west,5.0,No
2020/10/25,13:40,0.174,0.154,0.250,0.238,0.239,0.134,0.082,west,3.9,No
2020/10/25,13:50,0.171,0.154,0.248,0.236,0.239,0.134,0.081,west,5.1,No
2020/10/25,14:00,0.174,0.151,0.248,0.233,0.241,0.133,0.081,west-northwest,2.6,No
2020/10/25,14:10,0.171,0.153,0.248,0.236,0.242,0.132,0.081,west-northwest,2.3,No
2020/10/25,14:20,0.171,0.154,0.248,0.235,0.239,0.134,0.081,west,6.1,No
2020/10/25,14:30,0.172,0.152,0.251,0.236,0.241,0.135,0.081,west,9.3,No
2020/10/25,14:40,0.171,0.153,0.247,0.236,0.240,0.134,0.081,west-northwest,8.3,No
2020/10/25,14:50,0.173,0.153,0.250,0.236,0.242,0.135,0.081,west-northwest,7.2,No
2020/10/25,15:00,0.173,0.153,0.249,0.237,0.241,0.134,0.081,west-northwest,5.1,No
2020/10/25,15:10,0.174,0.154,0.250,0.236,0.242,0.134,0.081,west,4.2,No
2020/10/25,15:20,0.172,0.153,0.250,0.236,0.242,0.135,0.081,west-southwest,6.0,No
2020/10/25,15:30,0.173,0.153,0.250,0.237,0.242,0.133,0.082,west-southwest,5.1,No
2020/10/25,15:40,0.173,0.153,0.249,0.235,0.241,0.135,0.082,west,5.7,No
2020/10/25,15:50,0.173,0.152,0.249,0.237,0.240,0.134,0.081,west-southwest,1.9,No
2020/10/25,16:00,0.172,0.153,0.248,0.235,0.241,0.134,0.081,west-southwest,4.3,No
2020/10/25,16:10,0.173,0.153,0.250,0.237,0.240,0.133,0.081,west-southwest,6.4,No
2020/10/25,16:20,0.172,0.153,0.250,0.236,0.242,0.134,0.081,west,8.4,No
2020/10/25,16:30,0.173,0.154,0.249,0.237,0.242,0.135,0.081,west,5.3,No
2020/10/25,16:40,0.172,0.153,0.249,0.237,0.241,0.135,0.082,west,2.9,No
2020/10/25,16:50,0.174,0.153,0.248,0.236,0.242,0.135,0.082,west-southwest,3.4,No
2020/10/25,17:00,0.172,0.154,0.250,0.237,0.241,0.135,0.082,southwest,2.4,No
2020/10/25,17:10,0.172,0.153,0.249,0.236,0.242,0.134,0.082,southwest,3.5,No
2020/10/25,17:20,0.173,0.154,0.249,0.238,0.241,0.134,0.081,west-southwest,3.8,No
2020/10/25,17:30,0.173,0.152,0.250,0.235,0.242,0.135,0.082,west-southwest,5.9,No
2020/10/25,17:40,0.174,0.154,0.248,0.236,0.241,0.134,0.082,west-southwest,5.6,No
2020/10/25,17:50,0.173,0.153,0.250,0.239,0.242,0.136,0.082,west-southwest,4.9,No
2020/10/25,18:00,0.174,0.153,0.249,0.238,0.242,0.135,0.081,west-southwest,7.1,No
2020/10/25,18:10,0.173,0.154,0.249,0.238,0.240,0.134,0.082,west-southwest,5.8,No
2020/10/25,18:20,0.173,0.153,0.249,0.237,0.242,0.134,0.082,west-southwest,4.0,No
2020/10/25,18:30,0.172,0.154,0.249,0.236,0.240,0.134,0.081,southwest,4.6,No
2020/10/25,18:40,0.172,0.154,0.250,0.238,0.242,0.135,0.082,southwest,4.8,No
2020/10/25,18:50,0.173,0.154,0.250,0.236,0.241,0.134,0.082,south-southwest,5.2,No
2020/10/25,19:00,0.172,0.152,0.248,0.236,0.240,0.135,0.081,southwest,4.9,No
2020/10/25,19:10,0.172,0.154,0.251,0.236,0.242,0.135,0.081,southwest,4.3,No
2020/10/25,19:20,0.172,0.152,0.249,0.236,0.240,0.135,0.082,southwest,4.9,No
2020/10/25,19:30,0.172,0.154,0.249,0.236,0.243,0.135,0.081,southwest,4.5,No
2020/10/25,19:40,0.172,0.153,0.249,0.237,0.240,0.135,0.081,southwest,4.4,No
2020/10/25,19:50,0.172,0.153,0.248,0.236,0.242,0.136,0.081,southwest,4.8,No
2020/10/25,20:00,0.173,0.154,0.250,0.237,0.240,0.134,0.081,southwest,3.8,No
2020/10/25,20:10,0.173,0.153,0.247,0.237,0.241,0.135,0.082,southwest,5.0,No
2020/10/25,20:20,0.173,0.152,0.249,0.238,0.240,0.133,0.081,southwest,5.3,No
2020/10/25,20:30,0.173,0.154,0.250,0.238,0.240,0.134,0.082,west-southwest,5.0,No
2020/10/25,20:40,0.172,0.154,0.249,0.237,0.242,0.135,0.081,west-southwest,6.3,No
2020/10/25,20:50,0.174,0.152,0.250,0.237,0.241,0.133,0.081,west-southwest,5.6,No
2020/10/25,21:00,0.172,0.153,0.250,0.237,0.242,0.136,0.082,west-southwest,6.1,No
2020/10/25,21:10,0.173,0.153,0.249,0.236,0.241,0.135,0.081,west-southwest,6.4,No
2020/10/25,21:20,0.173,0.154,0.251,0.237,0.240,0.135,0.082,west-southwest,5.9,No
2020/10/25,21:30,0.172,0.153,0.249,0.236,0.243,0.134,0.082,west,7.0,No
2020/10/25,21:40,0.173,0.153,0.249,0.235,0.240,0.135,0.082,west,7.5,No
2020/10/25,21:50,0.172,0.153,0.249,0.236,0.242,0.135,0.082,west,7.3,No
2020/10/25,22:00,0.172,0.154,0.249,0.237,0.240,0.135,0.082,west,7.4,No
2020/10/25,22:10,0.173,0.154,0.250,0.237,0.242,0.135,0.082,west,8.1,No
2020/10/25,22:20,0.172,0.154,0.247,0.237,0.242,0.134,0.082,west,7.7,No
2020/10/25,22:30,0.174,0.153,0.250,0.236,0.240,0.134,0.081,west,8.1,No
2020/10/25,22:40,0.173,0.153,0.249,0.236,0.242,0.135,0.082,west,5.7,No
2020/10/25,22:50,0.173,0.153,0.249,0.236,0.240,0.135,0.082,west,6.5,No
2020/10/25,23:00,0.172,0.154,0.251,0.236,0.243,0.135,0.082,west,6.2,No
2020/10/25,23:10,0.173,0.154,0.249,0.238,0.241,0.134,0.081,west,5.7,No
2020/10/25,23:20,0.173,0.153,0.251,0.236,0.242,0.135,0.081,west-southwest,5.5,No
2020/10/25,23:30,0.173,0.154,0.248,0.237,0.242,0.134,0.081,west-southwest,7.5,No
2020/10/25,23:40,0.174,0.153,0.250,0.237,0.241,0.134,0.081,west,8.4,No
2020/10/25,23:50,0.172,0.154,0.251,0.237,0.243,0.135,0.082,west-southwest,9.0,No
